contact:dominique.lefevre@mio.osupytheas.fr, maurice.libes@osupytheas.fr, didier.mallarino@osupytheas.fr
Project:EMSO http://www.emso-fr.org/EMSO-France
Depth: 2436.0 m
Title:EMSO Ligure Ouest : Data MII capteur CSTAR
DateTime,Latitude,Longitude,Instrument_Serial,Reference_Counts,Signal_Counts,Corrected_Signal_raw_counts,Calculated_Beam_c_inverse_meters,Internal_thermistor_counts
DateTime,Latitude,Longitude,Instrument_Serial,Reference_Counts,Signal_Counts,Corrected_Signal_raw_counts,Calculated_Beam_c_inverse_meters,Internal_thermistor_counts
2020-01-03T00:00:58,42.805,6.029,CST-1368DR,7036,9863,15271,0.089,551
2020-01-03T00:04:00,42.805,6.029,CST-1368DR,7036,9863,15271,0.089,551
2020-01-03T00:07:02,42.805,6.029,CST-1368DR,7036,9863,15272,0.089,551
2020-01-03T00:10:03,42.805,6.029,CST-1368DR,7036,9864,15273,0.089,551
2020-01-03T00:13:05,42.805,6.029,CST-1368DR,7036,9863,15272,0.089,551
2020-01-03T00:16:07,42.805,6.029,CST-1368DR,7036,9863,15271,0.089,551
2020-01-03T00:19:08,42.805,6.029,CST-1368DR,7036,9863,15272,0.089,551
2020-01-03T00:22:10,42.805,6.029,CST-1368DR,7036,9863,15272,0.089,551
2020-01-03T00:25:12,42.805,6.029,CST-1368DR,7036,9862,15270,0.090,551
2020-01-03T00:28:13,42.805,6.029,CST-1368DR,7036,9859,15265,0.091,551
2020-01-03T00:31:15,42.805,6.029,CST-1368DR,7036,9860,15268,0.090,551
2020-01-03T00:34:17,42.805,6.029,CST-1368DR,7036,9862,15270,0.090,551
2020-01-03T00:37:18,42.805,6.029,CST-1368DR,7036,9862,15270,0.090,551
2020-01-03T00:40:20,42.805,6.029,CST-1368DR,7036,9862,15271,0.089,551
2020-01-03T00:43:22,42.805,6.029,CST-1368DR,7036,9862,15270,0.090,551
2020-01-03T00:46:24,42.805,6.029,CST-1368DR,7036,9862,15271,0.089,551
2020-01-03T00:49:25,42.805,6.029,CST-1368DR,7036,9861,15268,0.090,550
2020-01-03T00:52:27,42.805,6.029,CST-1368DR,7036,9861,15268,0.090,551
2020-01-03T00:55:29,42.805,6.029,CST-1368DR,7036,9862,15270,0.090,551
2020-01-03T00:58:30,42.805,6.029,CST-1368DR,7036,9863,15271,0.089,550
2020-01-03T01:01:32,42.805,6.029,CST-1368DR,7036,9863,15271,0.089,551
2020-01-03T01:04:34,42.805,6.029,CST-1368DR,7036,9863,15271,0.089,551
2020-01-03T01:07:35,42.805,6.029,CST-1368DR,7036,9862,15271,0.089,551
2020-01-03T01:10:37,42.805,6.029,CST-1368DR,7036,9863,15271,0.089,551
2020-01-03T01:13:38,42.805,6.029,CST-1368DR,7036,9860,15268,0.090,551
2020-01-03T01:16:40,42.805,6.029,CST-1368DR,7036,9861,15268,0.090,551
2020-01-03T01:19:42,42.805,6.029,CST-1368DR,7036,9859,15266,0.091,551
2020-01-03T01:22:43,42.805,6.029,CST-1368DR,7036,9863,15271,0.089,551
2020-01-03T01:25:45,42.805,6.029,CST-1368DR,7036,9862,15271,0.089,551
2020-01-03T01:28:47,42.805,6.029,CST-1368DR,7036,9862,15270,0.090,551
2020-01-03T01:31:48,42.805,6.029,CST-1368DR,7036,9862,15271,0.089,551
2020-01-03T01:34:50,42.805,6.029,CST-1368DR,7036,9862,15270,0.090,551
2020-01-03T01:37:52,42.805,6.029,CST-1368DR,7036,9860,15266,0.091,551
2020-01-03T01:40:53,42.805,6.029,CST-1368DR,7035,9857,15264,0.091,551
2020-01-03T01:43:55,42.805,6.029,CST-1368DR,7036,9862,15270,0.090,551
2020-01-03T01:46:56,42.805,6.029,CST-1368DR,7036,9861,15268,0.090,551
2020-01-03T01:49:58,42.805,6.029,CST-1368DR,7036,9861,15268,0.090,551
2020-01-03T01:53:00,42.805,6.029,CST-1368DR,7035,9861,15270,0.090,550
2020-01-03T01:56:01,42.805,6.029,CST-1368DR,7035,9860,15270,0.090,551
2020-01-03T01:59:03,42.805,6.029,CST-1368DR,7035,9855,15261,0.092,551
2020-01-03T02:02:05,42.805,6.029,CST-1368DR,7035,9863,15274,0.089,551
2020-01-03T02:05:06,42.805,6.029,CST-1368DR,7035,9861,15270,0.090,551
2020-01-03T02:08:08,42.805,6.029,CST-1368DR,7035,9863,15273,0.089,551
2020-01-03T02:11:10,42.805,6.029,CST-1368DR,7035,9862,15272,0.089,551
2020-01-03T02:14:11,42.805,6.029,CST-1368DR,7035,9862,15272,0.089,551
2020-01-03T02:17:13,42.805,6.029,CST-1368DR,7035,9863,15273,0.089,551
2020-01-03T02:20:15,42.805,6.029,CST-1368DR,7035,9863,15274,0.089,551
2020-01-03T02:23:16,42.805,6.029,CST-1368DR,7035,9861,15271,0.089,551
2020-01-03T02:26:18,42.805,6.029,CST-1368DR,7035,9862,15273,0.089,551
2020-01-03T02:29:20,42.805,6.029,CST-1368DR,7035,9863,15274,0.089,551
2020-01-03T02:32:21,42.805,6.029,CST-1368DR,7035,9857,15264,0.091,551
2020-01-03T02:35:23,42.805,6.029,CST-1368DR,7035,9860,15270,0.090,551
2020-01-03T02:38:24,42.805,6.029,CST-1368DR,7035,9862,15272,0.089,551
2020-01-03T02:41:26,42.805,6.029,CST-1368DR,7035,9862,15272,0.089,551
2020-01-03T02:44:28,42.805,6.029,CST-1368DR,7035,9862,15273,0.089,551
2020-01-03T02:47:29,42.805,6.029,CST-1368DR,7035,9862,15272,0.089,551
2020-01-03T02:50:31,42.805,6.029,CST-1368DR,7035,9862,15273,0.089,551
2020-01-03T02:53:33,42.805,6.029,CST-1368DR,7035,9862,15272,0.089,551
2020-01-03T02:56:34,42.805,6.029,CST-1368DR,7035,9862,15272,0.089,551
2020-01-03T02:59:36,42.805,6.029,CST-1368DR,7035,9862,15272,0.089,551
2020-01-03T03:02:38,42.805,6.029,CST-1368DR,7035,9862,15272,0.089,551
2020-01-03T03:05:39,42.805,6.029,CST-1368DR,7035,9862,15272,0.089,551
2020-01-03T03:08:41,42.805,6.029,CST-1368DR,7035,9862,15272,0.089,550
2020-01-03T03:11:43,42.805,6.029,CST-1368DR,7035,9862,15273,0.089,551
2020-01-03T03:14:44,42.805,6.029,CST-1368DR,7035,9862,15272,0.089,551
2020-01-03T03:17:46,42.805,6.029,CST-1368DR,7035,9863,15273,0.089,551
2020-01-03T03:20:48,42.805,6.029,CST-1368DR,7035,9860,15268,0.090,551
2020-01-03T03:23:49,42.805,6.029,CST-1368DR,7035,9862,15272,0.089,551
2020-01-03T03:26:51,42.805,6.029,CST-1368DR,7035,9860,15269,0.090,551
2020-01-03T03:29:52,42.805,6.029,CST-1368DR,7035,9861,15270,0.090,551
2020-01-03T03:32:54,42.805,6.029,CST-1368DR,7035,9862,15272,0.089,551
2020-01-03T03:35:56,42.805,6.029,CST-1368DR,7035,9862,15272,0.089,550
2020-01-03T03:38:57,42.805,6.029,CST-1368DR,7035,9862,15272,0.089,551
2020-01-03T03:41:59,42.805,6.029,CST-1368DR,7035,9861,15271,0.089,551
2020-01-03T03:45:01,42.805,6.029,CST-1368DR,7035,9861,15270,0.090,551
2020-01-03T03:48:02,42.805,6.029,CST-1368DR,7035,9860,15270,0.090,551
2020-01-03T03:51:04,42.805,6.029,CST-1368DR,7035,9862,15272,0.089,551
2020-01-03T03:54:06,42.805,6.029,CST-1368DR,7035,9859,15267,0.090,550
2020-01-03T03:57:07,42.805,6.029,CST-1368DR,7035,9862,15272,0.089,551
2020-01-03T04:00:10,42.805,6.029,CST-1368DR,7035,9861,15270,0.090,551
2020-01-03T04:03:11,42.805,6.029,CST-1368DR,7035,9862,15272,0.089,551
2020-01-03T04:06:13,42.805,6.029,CST-1368DR,7035,9861,15271,0.089,551
2020-01-03T04:09:15,42.805,6.029,CST-1368DR,7035,9862,15272,0.089,551
2020-01-03T04:12:16,42.805,6.029,CST-1368DR,7035,9859,15268,0.090,551
2020-01-03T04:15:18,42.805,6.029,CST-1368DR,7035,9862,15272,0.089,551
2020-01-03T04:18:19,42.805,6.029,CST-1368DR,7035,9862,15273,0.089,551
2020-01-03T04:21:21,42.805,6.029,CST-1368DR,7035,9862,15273,0.089,551
2020-01-03T04:24:23,42.805,6.029,CST-1368DR,7035,9862,15272,0.089,550
2020-01-03T04:27:24,42.805,6.029,CST-1368DR,7035,9862,15273,0.089,551
2020-01-03T04:30:26,42.805,6.029,CST-1368DR,7035,9862,15272,0.089,551
2020-01-03T04:33:28,42.805,6.029,CST-1368DR,7035,9862,15272,0.089,551
2020-01-03T04:36:29,42.805,6.029,CST-1368DR,7035,9860,15270,0.090,551
2020-01-03T04:39:31,42.805,6.029,CST-1368DR,7035,9861,15270,0.090,551
2020-01-03T04:42:33,42.805,6.029,CST-1368DR,7035,9862,15273,0.089,551
2020-01-03T04:45:34,42.805,6.029,CST-1368DR,7035,9862,15272,0.089,551
2020-01-03T04:48:36,42.805,6.029,CST-1368DR,7035,9859,15267,0.090,551
2020-01-03T04:51:37,42.805,6.029,CST-1368DR,7035,9861,15270,0.090,551
2020-01-03T04:54:39,42.805,6.029,CST-1368DR,7035,9860,15269,0.090,551
2020-01-03T04:57:41,42.805,6.029,CST-1368DR,7035,9860,15270,0.090,551
2020-01-03T05:00:43,42.805,6.029,CST-1368DR,7035,9860,15269,0.090,551
2020-01-03T05:03:44,42.805,6.029,CST-1368DR,7035,9861,15271,0.089,551
2020-01-03T05:06:46,42.805,6.029,CST-1368DR,7035,9862,15272,0.089,551
2020-01-03T05:09:48,42.805,6.029,CST-1368DR,7035,9862,15272,0.089,551
2020-01-03T05:12:49,42.805,6.029,CST-1368DR,7035,9861,15270,0.090,550
2020-01-03T05:15:51,42.805,6.029,CST-1368DR,7035,9861,15270,0.090,551
2020-01-03T05:18:53,42.805,6.029,CST-1368DR,7035,9862,15272,0.089,551
2020-01-03T05:21:54,42.805,6.029,CST-1368DR,7035,9861,15270,0.090,551
2020-01-03T05:24:56,42.805,6.029,CST-1368DR,7035,9860,15269,0.090,551
2020-01-03T05:27:58,42.805,6.029,CST-1368DR,7035,9860,15270,0.090,551
2020-01-03T05:30:59,42.805,6.029,CST-1368DR,7035,9862,15272,0.089,551
2020-01-03T05:34:01,42.805,6.029,CST-1368DR,7034,9860,15272,0.089,550
2020-01-03T05:37:02,42.805,6.029,CST-1368DR,7034,9859,15269,0.090,551
2020-01-03T05:40:04,42.805,6.029,CST-1368DR,7035,9862,15272,0.089,551
2020-01-03T05:43:06,42.805,6.029,CST-1368DR,7035,9861,15271,0.089,551
2020-01-03T05:46:07,42.805,6.029,CST-1368DR,7034,9861,15273,0.089,551
2020-01-03T05:49:09,42.805,6.029,CST-1368DR,7034,9860,15272,0.089,551
2020-01-03T05:52:11,42.805,6.029,CST-1368DR,7034,9861,15272,0.089,551
2020-01-03T05:55:13,42.805,6.029,CST-1368DR,7034,9861,15273,0.089,551
2020-01-03T05:58:14,42.805,6.029,CST-1368DR,7034,9861,15273,0.089,551
2020-01-03T06:01:16,42.805,6.029,CST-1368DR,7034,9861,15272,0.089,551
2020-01-03T06:04:18,42.805,6.029,CST-1368DR,7034,9861,15272,0.089,551
2020-01-03T06:07:20,42.805,6.029,CST-1368DR,7034,9861,15272,0.089,551
2020-01-03T06:10:21,42.805,6.029,CST-1368DR,7034,9862,15274,0.089,551
2020-01-03T06:13:23,42.805,6.029,CST-1368DR,7034,9861,15272,0.089,551
2020-01-03T06:16:24,42.805,6.029,CST-1368DR,7035,9862,15272,0.089,551
2020-01-03T06:19:26,42.805,6.029,CST-1368DR,7034,9861,15272,0.089,551
2020-01-03T06:22:28,42.805,6.029,CST-1368DR,7034,9862,15274,0.089,551
2020-01-03T06:25:30,42.805,6.029,CST-1368DR,7034,9861,15272,0.089,551
2020-01-03T06:28:31,42.805,6.029,CST-1368DR,7034,9862,15274,0.089,551
2020-01-03T06:31:33,42.805,6.029,CST-1368DR,7034,9860,15271,0.089,551
2020-01-03T06:34:35,42.805,6.029,CST-1368DR,7034,9862,15274,0.089,551
2020-01-03T06:37:36,42.805,6.029,CST-1368DR,7034,9861,15272,0.089,551
2020-01-03T06:40:38,42.805,6.029,CST-1368DR,7034,9861,15273,0.089,551
2020-01-03T06:43:39,42.805,6.029,CST-1368DR,7034,9862,15274,0.089,551
2020-01-03T06:46:41,42.805,6.029,CST-1368DR,7034,9861,15272,0.089,551
2020-01-03T06:49:43,42.805,6.029,CST-1368DR,7034,9862,15274,0.089,551
2020-01-03T06:52:44,42.805,6.029,CST-1368DR,7034,9859,15270,0.090,551
2020-01-03T06:55:46,42.805,6.029,CST-1368DR,7034,9859,15270,0.090,551
2020-01-03T06:58:48,42.805,6.029,CST-1368DR,7034,9861,15272,0.089,551
2020-01-03T07:01:49,42.805,6.029,CST-1368DR,7034,9861,15273,0.089,551
2020-01-03T07:04:51,42.805,6.029,CST-1368DR,7034,9862,15274,0.089,551
2020-01-03T07:07:53,42.805,6.029,CST-1368DR,7034,9862,15274,0.089,551
2020-01-03T07:10:54,42.805,6.029,CST-1368DR,7034,9861,15273,0.089,551
2020-01-03T07:13:56,42.805,6.029,CST-1368DR,7034,9861,15272,0.089,551
2020-01-03T07:16:58,42.805,6.029,CST-1368DR,7034,9861,15272,0.089,551
2020-01-03T07:19:59,42.805,6.029,CST-1368DR,7034,9860,15272,0.089,550
2020-01-03T07:23:01,42.805,6.029,CST-1368DR,7034,9860,15272,0.089,551
2020-01-03T07:26:03,42.805,6.029,CST-1368DR,7034,9861,15273,0.089,551
2020-01-03T07:29:04,42.805,6.029,CST-1368DR,7034,9860,15272,0.089,551
2020-01-03T07:32:06,42.805,6.029,CST-1368DR,7034,9860,15271,0.089,551
2020-01-03T07:35:07,42.805,6.029,CST-1368DR,7034,9861,15272,0.089,551
2020-01-03T07:38:09,42.805,6.029,CST-1368DR,7034,9860,15271,0.089,551
2020-01-03T07:41:11,42.805,6.029,CST-1368DR,7034,9860,15271,0.089,551
2020-01-03T07:44:12,42.805,6.029,CST-1368DR,7034,9861,15272,0.089,551
2020-01-03T07:47:14,42.805,6.029,CST-1368DR,7034,9861,15272,0.089,551
2020-01-03T07:50:16,42.805,6.029,CST-1368DR,7034,9862,15274,0.089,551
2020-01-03T07:53:18,42.805,6.029,CST-1368DR,7034,9861,15272,0.089,551
2020-01-03T07:56:19,42.805,6.029,CST-1368DR,7034,9860,15271,0.089,551
2020-01-03T07:59:21,42.805,6.029,CST-1368DR,7034,9859,15269,0.090,551
2020-01-03T08:02:22,42.805,6.029,CST-1368DR,7034,9861,15272,0.089,551
2020-01-03T08:05:24,42.805,6.029,CST-1368DR,7034,9861,15272,0.089,551
2020-01-03T08:08:26,42.805,6.029,CST-1368DR,7034,9860,15271,0.089,551
2020-01-03T08:11:27,42.805,6.029,CST-1368DR,7034,9861,15272,0.089,551
2020-01-03T08:14:29,42.805,6.029,CST-1368DR,7034,9857,15266,0.091,551
2020-01-03T08:17:31,42.805,6.029,CST-1368DR,7034,9860,15271,0.089,551
2020-01-03T08:20:32,42.805,6.029,CST-1368DR,7034,9861,15272,0.089,551
2020-01-03T08:23:34,42.805,6.029,CST-1368DR,7034,9860,15272,0.089,551
2020-01-03T08:26:36,42.805,6.029,CST-1368DR,7034,9862,15274,0.089,551
2020-01-03T08:29:37,42.805,6.029,CST-1368DR,7034,9860,15271,0.089,551
2020-01-03T08:32:39,42.805,6.029,CST-1368DR,7034,9860,15271,0.089,551
2020-01-03T08:35:41,42.805,6.029,CST-1368DR,7034,9860,15271,0.089,551
2020-01-03T08:38:42,42.805,6.029,CST-1368DR,7034,9861,15272,0.089,551
2020-01-03T08:41:44,42.805,6.029,CST-1368DR,7034,9860,15271,0.089,551
2020-01-03T08:44:46,42.805,6.029,CST-1368DR,7034,9861,15272,0.089,551
2020-01-03T08:47:48,42.805,6.029,CST-1368DR,7034,9860,15271,0.089,551
2020-01-03T08:50:49,42.805,6.029,CST-1368DR,7034,9861,15272,0.089,551
2020-01-03T08:53:51,42.805,6.029,CST-1368DR,7034,9860,15271,0.089,551
2020-01-03T08:56:53,42.805,6.029,CST-1368DR,7034,9860,15271,0.089,551
2020-01-03T08:59:55,42.805,6.029,CST-1368DR,7034,9860,15271,0.089,551
2020-01-03T09:02:56,42.805,6.029,CST-1368DR,7034,9860,15271,0.089,551
2020-01-03T09:05:58,42.805,6.029,CST-1368DR,7034,9859,15270,0.090,551
2020-01-03T09:08:59,42.805,6.029,CST-1368DR,7034,9859,15270,0.090,551
2020-01-03T09:12:01,42.805,6.029,CST-1368DR,7034,9858,15268,0.090,551
2020-01-03T09:15:03,42.805,6.029,CST-1368DR,7034,9860,15271,0.089,551
2020-01-03T09:18:04,42.805,6.029,CST-1368DR,7034,9861,15272,0.089,551
2020-01-03T09:21:06,42.805,6.029,CST-1368DR,7034,9860,15272,0.089,551
2020-01-03T09:24:08,42.805,6.029,CST-1368DR,7034,9860,15271,0.089,551
2020-01-03T09:27:09,42.805,6.029,CST-1368DR,7034,9858,15267,0.090,551
2020-01-03T09:30:12,42.805,6.029,CST-1368DR,7034,9860,15271,0.089,551
2020-01-03T09:33:13,42.805,6.029,CST-1368DR,7033,9860,15274,0.089,551
2020-01-03T09:36:15,42.805,6.029,CST-1368DR,7033,9860,15273,0.089,551
2020-01-03T09:39:17,42.805,6.029,CST-1368DR,7033,9860,15273,0.089,551
2020-01-03T09:42:18,42.805,6.029,CST-1368DR,7033,9860,15273,0.089,551
2020-01-03T09:45:20,42.805,6.029,CST-1368DR,7033,9859,15272,0.089,551
2020-01-03T09:48:21,42.805,6.029,CST-1368DR,7033,9860,15273,0.089,551
2020-01-03T09:51:23,42.805,6.029,CST-1368DR,7033,9859,15272,0.089,551
2020-01-03T09:54:25,42.805,6.029,CST-1368DR,7033,9860,15273,0.089,551
2020-01-03T09:57:26,42.805,6.029,CST-1368DR,7033,9861,15274,0.089,551
2020-01-03T10:00:28,42.805,6.029,CST-1368DR,7033,9857,15269,0.090,550
2020-01-03T10:03:30,42.805,6.029,CST-1368DR,7033,9860,15273,0.089,551
2020-01-03T10:06:31,42.805,6.029,CST-1368DR,7033,9860,15273,0.089,550
2020-01-03T10:09:33,42.805,6.029,CST-1368DR,7033,9857,15269,0.090,551
2020-01-03T10:12:35,42.805,6.029,CST-1368DR,7033,9860,15273,0.089,551
2020-01-03T10:15:37,42.805,6.029,CST-1368DR,7033,9859,15272,0.089,551
2020-01-03T10:18:38,42.805,6.029,CST-1368DR,7033,9860,15273,0.089,551
2020-01-03T10:21:40,42.805,6.029,CST-1368DR,7033,9859,15272,0.089,551
2020-01-03T10:24:42,42.805,6.029,CST-1368DR,7033,9859,15271,0.089,551
2020-01-03T10:27:43,42.805,6.029,CST-1368DR,7033,9859,15272,0.089,551
2020-01-03T10:30:45,42.805,6.029,CST-1368DR,7033,9858,15271,0.089,551
2020-01-03T10:33:46,42.805,6.029,CST-1368DR,7033,9859,15271,0.089,551
2020-01-03T10:36:48,42.805,6.029,CST-1368DR,7033,9860,15273,0.089,551
2020-01-03T10:39:50,42.805,6.029,CST-1368DR,7033,9859,15271,0.089,550
2020-01-03T10:42:51,42.805,6.029,CST-1368DR,7033,9859,15271,0.089,551
2020-01-03T10:45:53,42.805,6.029,CST-1368DR,7033,9859,15272,0.089,551
2020-01-03T10:48:55,42.805,6.029,CST-1368DR,7033,9859,15272,0.089,551
2020-01-03T10:51:56,42.805,6.029,CST-1368DR,7033,9859,15272,0.089,551
2020-01-03T10:54:58,42.805,6.029,CST-1368DR,7033,9859,15272,0.089,551
2020-01-03T10:58:00,42.805,6.029,CST-1368DR,7033,9860,15273,0.089,551
2020-01-03T11:01:01,42.805,6.029,CST-1368DR,7033,9859,15272,0.089,550
2020-01-03T11:04:03,42.805,6.029,CST-1368DR,7033,9859,15271,0.089,551
2020-01-03T11:07:05,42.805,6.029,CST-1368DR,7033,9858,15269,0.090,551
2020-01-03T11:10:06,42.805,6.029,CST-1368DR,7033,9860,15273,0.089,550
2020-01-03T11:13:08,42.805,6.029,CST-1368DR,7033,9858,15271,0.089,551
2020-01-03T11:16:10,42.805,6.029,CST-1368DR,7033,9860,15273,0.089,551
2020-01-03T11:19:11,42.805,6.029,CST-1368DR,7033,9860,15273,0.089,551
2020-01-03T11:22:13,42.805,6.029,CST-1368DR,7033,9860,15273,0.089,551
2020-01-03T11:25:15,42.805,6.029,CST-1368DR,7033,9859,15272,0.089,551
2020-01-03T11:28:17,42.805,6.029,CST-1368DR,7033,9859,15271,0.089,551
2020-01-03T11:31:18,42.805,6.029,CST-1368DR,7033,9860,15273,0.089,551
2020-01-03T11:34:20,42.805,6.029,CST-1368DR,7033,9859,15272,0.089,551
2020-01-03T11:37:22,42.805,6.029,CST-1368DR,7033,9858,15269,0.090,551
2020-01-03T11:40:24,42.805,6.029,CST-1368DR,7033,9860,15273,0.089,551
2020-01-03T11:43:25,42.805,6.029,CST-1368DR,7033,9859,15271,0.089,551
2020-01-03T11:46:27,42.805,6.029,CST-1368DR,7033,9859,15271,0.089,551
2020-01-03T11:49:29,42.805,6.029,CST-1368DR,7033,9860,15273,0.089,551
2020-01-03T11:52:30,42.805,6.029,CST-1368DR,7033,9860,15273,0.089,550
2020-01-03T11:55:33,42.805,6.029,CST-1368DR,7033,9860,15273,0.089,551
2020-01-03T11:58:34,42.805,6.029,CST-1368DR,7033,9860,15273,0.089,551
2020-01-03T12:01:36,42.805,6.029,CST-1368DR,7033,9859,15271,0.089,551
2020-01-03T12:04:38,42.805,6.029,CST-1368DR,7033,9858,15269,0.090,551
2020-01-03T12:07:39,42.805,6.029,CST-1368DR,7033,9859,15271,0.089,551
2020-01-03T12:10:41,42.805,6.029,CST-1368DR,7033,9859,15272,0.089,551
2020-01-03T12:13:43,42.805,6.029,CST-1368DR,7033,9860,15273,0.089,551
2020-01-03T12:16:44,42.805,6.029,CST-1368DR,7033,9860,15273,0.089,551
2020-01-03T12:19:46,42.805,6.029,CST-1368DR,7033,9858,15271,0.089,551
2020-01-03T12:22:47,42.805,6.029,CST-1368DR,7033,9859,15272,0.089,550
2020-01-03T12:25:49,42.805,6.029,CST-1368DR,7033,9858,15270,0.090,551
2020-01-03T12:28:51,42.805,6.029,CST-1368DR,7033,9859,15272,0.089,551
2020-01-03T12:31:52,42.805,6.029,CST-1368DR,7033,9860,15273,0.089,551
2020-01-03T12:34:54,42.805,6.029,CST-1368DR,7033,9859,15271,0.089,551
2020-01-03T12:37:56,42.805,6.029,CST-1368DR,7033,9858,15270,0.090,551
2020-01-03T12:40:57,42.805,6.029,CST-1368DR,7033,9860,15273,0.089,551
2020-01-03T12:43:59,42.805,6.029,CST-1368DR,7033,9860,15273,0.089,551
2020-01-03T12:47:01,42.805,6.029,CST-1368DR,7033,9859,15271,0.089,551
2020-01-03T12:50:02,42.805,6.029,CST-1368DR,7033,9858,15270,0.090,551
2020-01-03T12:53:04,42.805,6.029,CST-1368DR,7033,9859,15271,0.089,551
2020-01-03T12:56:06,42.805,6.029,CST-1368DR,7033,9859,15272,0.089,551
2020-01-03T12:59:07,42.805,6.029,CST-1368DR,7033,9857,15268,0.090,550
2020-01-03T13:02:09,42.805,6.029,CST-1368DR,7033,9859,15271,0.089,551
2020-01-03T13:05:11,42.805,6.029,CST-1368DR,7033,9859,15271,0.089,551
2020-01-03T13:08:12,42.805,6.029,CST-1368DR,7033,9859,15271,0.089,551
2020-01-03T13:11:14,42.805,6.029,CST-1368DR,7033,9859,15271,0.089,551
2020-01-03T13:14:16,42.805,6.029,CST-1368DR,7033,9857,15268,0.090,551
2020-01-03T13:17:17,42.805,6.029,CST-1368DR,7033,9858,15269,0.090,551
2020-01-03T13:20:19,42.805,6.029,CST-1368DR,7033,9859,15271,0.089,551
2020-01-03T13:23:20,42.805,6.029,CST-1368DR,7033,9859,15272,0.089,551
2020-01-03T13:26:22,42.805,6.029,CST-1368DR,7033,9858,15269,0.090,551
2020-01-03T13:29:24,42.805,6.029,CST-1368DR,7033,9859,15271,0.089,550
2020-01-03T13:32:25,42.805,6.029,CST-1368DR,7033,9859,15272,0.089,551
2020-01-03T13:35:27,42.805,6.029,CST-1368DR,7032,9858,15273,0.089,551
2020-01-03T13:38:29,42.805,6.029,CST-1368DR,7032,9858,15272,0.089,550
2020-01-03T13:41:30,42.805,6.029,CST-1368DR,7033,9858,15271,0.089,551
2020-01-03T13:44:32,42.805,6.029,CST-1368DR,7033,9858,15270,0.090,551
2020-01-03T13:47:34,42.805,6.029,CST-1368DR,7033,9858,15269,0.090,550
2020-01-03T13:50:35,42.805,6.029,CST-1368DR,7033,9859,15271,0.089,551
2020-01-03T13:53:37,42.805,6.029,CST-1368DR,7032,9859,15274,0.089,551
2020-01-03T13:56:39,42.805,6.029,CST-1368DR,7033,9859,15271,0.089,551
2020-01-03T13:59:40,42.805,6.029,CST-1368DR,7032,9857,15271,0.089,551
2020-01-03T14:02:42,42.805,6.029,CST-1368DR,7032,9857,15271,0.089,551
2020-01-03T14:05:43,42.805,6.029,CST-1368DR,7032,9858,15273,0.089,551
2020-01-03T14:08:45,42.805,6.029,CST-1368DR,7032,9858,15271,0.089,551
2020-01-03T14:11:47,42.805,6.029,CST-1368DR,7032,9858,15272,0.089,551
2020-01-03T14:14:48,42.805,6.029,CST-1368DR,7032,9859,15273,0.089,551
2020-01-03T14:17:50,42.805,6.029,CST-1368DR,7032,9859,15273,0.089,551
2020-01-03T14:20:52,42.805,6.029,CST-1368DR,7032,9859,15273,0.089,551
2020-01-03T14:23:53,42.805,6.029,CST-1368DR,7032,9858,15273,0.089,551
2020-01-03T14:26:55,42.805,6.029,CST-1368DR,7032,9858,15272,0.089,551
2020-01-03T14:29:57,42.805,6.029,CST-1368DR,7032,9858,15272,0.089,551
2020-01-03T14:32:58,42.805,6.029,CST-1368DR,7032,9859,15273,0.089,551
2020-01-03T14:36:00,42.805,6.029,CST-1368DR,7032,9858,15273,0.089,551
2020-01-03T14:39:02,42.805,6.029,CST-1368DR,7032,9857,15271,0.089,551
2020-01-03T14:42:03,42.805,6.029,CST-1368DR,7032,9858,15271,0.089,551
2020-01-03T14:45:05,42.805,6.029,CST-1368DR,7032,9858,15272,0.089,551
2020-01-03T14:48:07,42.805,6.029,CST-1368DR,7032,9859,15273,0.089,550
2020-01-03T14:51:09,42.805,6.029,CST-1368DR,7032,9858,15273,0.089,551
2020-01-03T14:54:10,42.805,6.029,CST-1368DR,7032,9859,15273,0.089,551
2020-01-03T14:57:12,42.805,6.029,CST-1368DR,7032,9856,15268,0.090,551
2020-01-03T15:00:14,42.805,6.029,CST-1368DR,7032,9859,15273,0.089,550
2020-01-03T15:03:16,42.805,6.029,CST-1368DR,7032,9858,15271,0.089,551
2020-01-03T15:06:17,42.805,6.029,CST-1368DR,7032,9857,15270,0.090,551
2020-01-03T15:09:19,42.805,6.029,CST-1368DR,7032,9858,15273,0.089,551
2020-01-03T15:12:21,42.805,6.029,CST-1368DR,7032,9858,15271,0.089,551
2020-01-03T15:15:22,42.805,6.029,CST-1368DR,7032,9858,15273,0.089,550
2020-01-03T15:18:24,42.805,6.029,CST-1368DR,7032,9858,15273,0.089,551
2020-01-03T15:21:26,42.805,6.029,CST-1368DR,7032,9858,15272,0.089,551
2020-01-03T15:24:27,42.805,6.029,CST-1368DR,7032,9856,15268,0.090,551
2020-01-03T15:27:29,42.805,6.029,CST-1368DR,7032,9857,15270,0.090,551
2020-01-03T15:30:31,42.805,6.029,CST-1368DR,7032,9858,15271,0.089,551
2020-01-03T15:33:32,42.805,6.029,CST-1368DR,7032,9855,15268,0.090,551
2020-01-03T15:36:34,42.805,6.029,CST-1368DR,7032,9857,15271,0.089,551
2020-01-03T15:39:36,42.805,6.029,CST-1368DR,7032,9858,15272,0.089,551
2020-01-03T15:42:37,42.805,6.029,CST-1368DR,7032,9857,15271,0.089,551
2020-01-03T15:45:39,42.805,6.029,CST-1368DR,7032,9856,15270,0.090,551
2020-01-03T15:48:40,42.805,6.029,CST-1368DR,7032,9855,15268,0.090,551
2020-01-03T15:51:42,42.805,6.029,CST-1368DR,7032,9855,15268,0.090,551
2020-01-03T15:54:44,42.805,6.029,CST-1368DR,7032,9857,15271,0.089,551
2020-01-03T15:57:45,42.805,6.029,CST-1368DR,7032,9858,15271,0.089,551
2020-01-03T16:00:47,42.805,6.029,CST-1368DR,7032,9857,15271,0.089,550
2020-01-03T16:03:49,42.805,6.029,CST-1368DR,7032,9856,15269,0.090,551
2020-01-03T16:06:51,42.805,6.029,CST-1368DR,7032,9856,15270,0.090,551
2020-01-03T16:09:52,42.805,6.029,CST-1368DR,7032,9857,15271,0.089,551
2020-01-03T16:12:54,42.805,6.029,CST-1368DR,7032,9856,15268,0.090,551
2020-01-03T16:15:55,42.805,6.029,CST-1368DR,7032,9857,15271,0.089,551
2020-01-03T16:18:57,42.805,6.029,CST-1368DR,7032,9857,15271,0.089,551
2020-01-03T16:21:59,42.805,6.029,CST-1368DR,7032,9857,15271,0.089,551
2020-01-03T16:25:01,42.805,6.029,CST-1368DR,7032,9858,15271,0.089,551
2020-01-03T16:28:02,42.805,6.029,CST-1368DR,7032,9858,15273,0.089,551
2020-01-03T16:31:04,42.805,6.029,CST-1368DR,7032,9857,15271,0.089,551
2020-01-03T16:34:06,42.805,6.029,CST-1368DR,7032,9857,15271,0.089,551
2020-01-03T16:37:07,42.805,6.029,CST-1368DR,7032,9858,15272,0.089,551
2020-01-03T16:40:09,42.805,6.029,CST-1368DR,7032,9857,15271,0.089,551
2020-01-03T16:43:11,42.805,6.029,CST-1368DR,7031,9857,15272,0.089,550
2020-01-03T16:46:12,42.805,6.029,CST-1368DR,7032,9856,15269,0.090,551
2020-01-03T16:49:14,42.805,6.029,CST-1368DR,7032,9857,15270,0.090,551
2020-01-03T16:52:16,42.805,6.029,CST-1368DR,7031,9856,15271,0.089,551